sat.trackr.live / text

‹ back to catalog

STARLINK-30524

NORAD 57965 · 2023-151B

PAYLOAD ACTIVE UNKNOWN

§ Identity

Operator
Country
US
Launch date
2023-09-30
Launch site
AFETR
Launch vehicle
Mass (kg)
RCS (m²)

Purposes: comms

External: N2YO · Heavens-Above · Gunter

§ Orbital elements

Epoch: 2026-05-25T01:25:45.969312Z

Period
94.27 min
Inclination
43.0072°
Eccentricity
0.0003143
Mean motion
15.27595960 rev/d
Perigee alt
480.8 km
Apogee alt
485.2 km
Semi-major
6,861.1 km
B*
5.6684e-5
RAAN
264.9357°
Arg perigee
266.8554°
Mean anomaly
93.1938°
Rev number
14,744

§ Raw data

STARLINK-305241 57965U 23151B   26145.05955983  .00001298  00000+0  56684-4 0  99982 57965  43.0072 264.9357 0003143 266.8554  93.1938 15.27595960147445

JSON: /api/v1/satellites/57965 · /tle

For live sub-satellite position, see the globe view (requires WebGL).

§ Visibility from observer

Set your observer location to see the next 7 days of passes ≥ 10°. The values pass through the URL so the page stays shareable.

No JS? Fill the form by hand. The geolocation button needs JavaScript.